Preview of NWS' New Version of Forecast
This preview is not operational and should not be used for support decisions.

Regional Weather Roundup (RWR)

Issued by National Weather Service (NWS)

                            
000
ASUS44 KJAN 171510
RWRMS 

MISSISSIPPI HOURLY WEATHER ROUNDUP
NATIONAL WEATHER SERVICE JACKSON MS
1000 AM CDT MON JUN 17 2019

NOTE: "FAIR: INDICATES FEW OR NO CLOUDS BELOW 12,000 FEET WITH NO
SIGNIFICANT WEATHER AND/OR OBSTRUCTIONS TO VISIBILITY.

MSZ001>002-007>008-010>013-018>021-025>028-034>036-171600-
NORTHWEST MISSISSIPPI
  
CITY           SKY/WX    TMP DP  RH WIND       PRES   REMARKS
BATESVILLE     FAIR      79  70  73 VRB3      29.97F                  
CLARKSDALE     SUNNY     81  70  69 S7        29.97S                  
CLEVELAND      FAIR      76  69  78 S7        29.96F                  
GREENWOOD      FAIR      77  71  82 SW6       29.98S                  
GREENVILLE     FAIR      76  67  73 S6        29.96S                  
OLIVE BRANCH   PTSUNNY   81  64  57 SW13G20   29.96F                  
OXFORD         DRIZZLE   75  68  78 VRB3      30.01R                  
TUNICA           N/A     81  64  57 S13       29.96S                  
WINONA         FAIR      77  71  82 SW6       29.99R                  
$$

MSZ003>006-009-014>017-022>024-029>033-037>039-171600-
NORTHEAST MISSISSIPPI
  
CITY           SKY/WX    TMP DP  RH WIND       PRES   REMARKS
ABERDEEN       FAIR      79  79 100 S7        30.01S                  
COLUMBUS AFB   FAIR      81  71  71 S5        29.99S                  
CORINTH        FAIR      81  70  69 SW8       29.99R                  
STARKVILLE     FAIR      81  70  69 SW3       30.00S                  
TUPELO         FAIR      77  68  73 SE5       29.99S                  
$$

MSZ040-058-171600-
CENTRAL MISSISSIPPI
  
CITY           SKY/WX    TMP DP  RH WIND       PRES   REMARKS
JACKSON INTL   FAIR      81  72  74 S10       29.97F                  
JACKSON HAWKNS FAIR      82  75  79 S8        29.97F                  
MADISON        FAIR      79  77  94 S6        29.97F                  
MERIDIAN KEY   PTSUNNY   82  74  76 S6        30.00S                  
MERIDIAN NAS   PTSUNNY   81  73  76 S7        30.01S                  
RAYMOND        FAIR      82  79  89 S7        29.96S HX  93           
VICKSBURG VKS  MOSUNNY   81  75  83 CALM      29.96S                  
$$

MSZ059>079-171600-
SOUTH MISSISSIPPI
  
CITY           SKY/WX    TMP DP  RH WIND       PRES   REMARKS
BROOKHAVEN     PTSUNNY   82  75  78 NE8       29.99S                  
HATTIESBURG    FAIR      84  74  71 S9        29.99  HX  91           
LAUREL         MOSUNNY   82  75  78 S6        29.99F                  
MCCOMB         PTSUNNY   82  75  79 S9        29.96                   
NATCHEZ        PTSUNNY   82  74  76 SE10      29.96R                  
PINE BELT      PTSUNNY   82  76  81 S9        30.00F                  
$$

MSZ080>082-171600-
COASTAL MISSISSIPPI
  
CITY           SKY/WX    TMP DP  RH WIND       PRES   REMARKS
BAY ST LOUIS   MOSUNNY   86  72  62 S13       29.96F HX  92           
BILOXI         FAIR      86  75  68 S9        29.98S HX  95           
PASCAGOULA     FAIR      86  73  65 S7        29.98  HX  93           
GULFPORT       FAIR      86  74  67 SE16      29.97  HX  94           
$$

LAZ007>009-015>016-023>026-171600-
NORTHEAST LOUISIANA
  
CITY           SKY/WX    TMP DP  RH WIND       PRES   REMARKS
BASTROP        FAIR      75  69  81 CALM      29.97S                  
TALLULAH/VBURG PTSUNNY   78  71  79 S7        29.97R                  
VIDALIA        CLOUDY    80  74  81 S3        29.94R                  
$$